Location: Dresden
(51.0500°N, 13.7500°E)
Time: 15:11:13
(UTC+00:00)

ISS - Visible Passes

Search period start: 01 October 2022 00:00
Search period end: 11 October 2022 00:00
Orbit: 413 x 417 km, 51.6° (Epoch: 01 October)

Date Brightness Start Highest point End Pass type
(mag) Time Alt. Az. Time Alt. Az. Time Alt. Az.
01 Oct -1.9 18:32:08 10° W 18:34:50 23° SW 18:35:58 19° S visible
02 Oct -2.3 17:43:07 10° W 17:46:10 32° SSW 17:49:12 10° SE visible
03 Oct -0.9 18:32:24 10° WSW 18:33:29 11° SW 18:34:36 10° SSW visible
04 Oct -1.1 17:42:36 10° W 17:44:50 17° SW 17:47:06 10° S visible
